OBJECT J (44347 NORAD) Tracking and Keplerian Element Data

This shows tracking and keplerian element data for the satellite.

Feedback or suggestion? Click here.




ElementValue
Catalog44347
NameOBJECT J
Epoch Orbit1720
Epoch Day290.85463026
Epoch Year2019
RAAN173.8437
Inclination28.5322
Eccentricity0.0366543
Argument of Perigee240.5502
Mean Anonmoly115.802
Mean Motion15.02376068
Decay Rate0.0002927
L11 44347U 19036J 19290.85463026 .00029270 00000-0 44779-3 0 9990
L22 44347 28.5322 173.8437 0366543 240.5502 115.8020 15.02376068 17209

Live tracking and technical data element details for OBJECT J (NORAD 44347). OBJECT J can be tracked NOW for your location showing map with azimuth and elevation plus other details from your city location.

Track the satellite on the map from your city or location and see movement details for azimuth, elevation, latitude, longitude, range, height, and movement on the map or in text.







IsCatalogInMostPopularTable: catalog: 44347, numindb: 17
Update: records affected: 1



GetName: 44347 OBJECT J

Hit Count: updated at: Wed, 23 Oct 2019 00:34:49 GMT